Location: Newark
(48.8656°N, 2.3211°E)
Time: 20:29:01
(UTC+00:00)

Envisat - Pass Details

Date: 16 December 2019
Orbit: 764 x 766 km, 98.1° (Epoch: 28 January)

Event Time Altitude Azimuth Distance (km) Brightness Sun altitude
Rises 17:14:03 0° 153° (SSE) 3,222 6.2 -12.3°
Reaches altitude 10° 17:16:22 10° 150° (SSE) 2,300 5.4 -12.7°
Maximum altitude 17:21:21 61° 71° (ENE) 871 3.0 -13.4°
Drops below altitude 10° 17:26:22 10° 352° (N) 2,317 5.4 -14.2°
Sets 17:28:42 0° 349° (N) 3,247 6.2 -14.6°
